Flag for Philippines Weather past 2 weeks in Tarlac City, Philippines

Now
75 °F

Passing clouds.


Feels Like: 73 °F
Forecast: 72 / 88 °F
Wind: 6 mph from Northwest

Location: Clarkfield Pampanga International Airport

Current Time: Dec 21, 2014 at 2:57:23 AM

Latest Report: Dec 21, 2014 at 2:00 AM


Visibility: N/A

Pressure: 29.92 "Hg

Humidity: 100%

Dew point: 75 °F

Location of Tarlac CityLocation

Historic Weather in Tarlac City — Graph

°F

Tarlac City temperature yesterday

Maximum temperature yesterday: 86 °F (at 1:00 PM)
Minimum temperature yesterday: 72 °F (at 1:00 AM)
Average temperature yesterday: 79 °F

Past Weeks' High & Low Weather Summary

 TemperatureHumidityPressure
High90 °F (Dec 12, 3:00 PM)100% (Dec 6, 9:00 PM)30.09 "Hg (Dec 6, 9:00 PM)
Low70 °F (Dec 19, 6:00 AM)43% (Dec 7, 1:00 PM)29.71 "Hg (Dec 8, 2:00 PM)
Average79 °F78%29.92 "Hg
* Reported Dec 6 1:00 AM — Dec 21 1:00 AM, Tarlac City, Weather by CustomWeather, © 2014

Note: Actual official high and low records may vary slightly from our data, if they occured in-between our weather recording intervals... More about our weather records

Advertising

Tarlac City weather history for previous 24 hours

 ConditionsComfort  
Time TempWeatherWind HumidityBarometerVisibility
1:00 AM
Dec 21
75 °FPassing clouds.6 mph94%29.92 "HgN/A
12:00 AM77 °FPartly cloudy.2 mph89%29.92 "HgN/A
11:00 PM
Dec 20
77 °FPartly cloudy.5 mph94%29.92 "HgN/A
10:00 PM77 °FPartly cloudy.3 mph94%29.95 "HgN/A
9:00 PM77 °FPartly cloudy.2 mph94%29.95 "HgN/A
8:00 PM77 °FPartly cloudy.5 mph94%29.92 "HgN/A
7:00 PM79 °FMostly cloudy.8 mph84%29.89 "HgN/A
6:00 PM81 °FPartly cloudy.12 mph74%29.86 "HgN/A
5:00 PM84 °FBroken clouds.5 mph62%29.86 "HgN/A
4:00 PM86 °FPartly sunny.5 mph59%29.86 "HgN/A
3:00 PM86 °FPartly sunny.6 mph55%29.86 "HgN/A
2:00 PM86 °FScattered clouds.5 mph59%29.86 "HgN/A
1:00 PM86 °FScattered clouds.6 mph55%29.89 "HgN/A
12:00 PM84 °FScattered clouds.7 mph58%29.92 "HgN/A
11:00 AM82 °FPartly sunny.7 mph62%29.95 "HgN/A
10:00 AM81 °FPartly sunny.6 mph66%29.98 "HgN/A
9:00 AM79 °FPartly sunny.6 mph70%29.98 "HgN/A
8:00 AM79 °FPartly sunny.6 mph70%29.95 "HgN/A
7:00 AM73 °FPartly sunny.6 mph83%29.95 "HgN/A
6:00 AM73 °FPassing clouds.6 mph89%29.92 "HgN/A
5:00 AM73 °FPassing clouds.7 mph89%29.92 "HgN/A
4:00 AM73 °FPassing clouds.7 mph89%29.92 "HgN/A
3:00 AM73 °FPassing clouds.5 mph89%29.95 "HgN/A
2:00 AM73 °FPassing clouds.7 mph89%29.95 "HgN/A
Weather by CustomWeather, © 2014

See weather overviewHow to use our weather pages